• în România
  • Lista ţărilor
  • Pe 7 zile
  • Temperatura apei
  • Hartă satelitară
  • Meteo pe hartă
  • Widget-uri
  • user-avatar
    Intrare

    Meteo pe oră la Podgora

    Astăzi, 21 Octombrie, Sâmbătă

    Timp Temperatura Precipitaţii Vânt Presiune Umiditate
    00:00 +18°C° 0 mm 1 m/s 765 mmHg 85%
    01:00 +16°C° 0 mm 1 m/s 765 mmHg 82%
    02:00 +16°C° 0 mm 1 m/s 765 mmHg 82%
    03:00 +16°C° 0 mm 1 m/s 765 mmHg 81%
    04:00 +16°C° 0 mm 1 m/s 764 mmHg 81%
    05:00 +16°C° 0 mm 1 m/s 764 mmHg 79%
    06:00 +16°C° 0 mm 1 m/s 765 mmHg 77%
    07:00 +16°C° 0 mm 1 m/s 765 mmHg 75%
    08:00 +19°C° 0 mm 1 m/s 764 mmHg 68%
    09:00 +21°C° 0 mm 1 m/s 764 mmHg 60%
    10:00 +23°C° 0 mm 1 m/s 764 mmHg 53%
    11:00 +24°C° 0 mm 2 m/s 764 mmHg 52%
    12:00 +24°C° 0 mm 2 m/s 764 mmHg 51%
    13:00 +25°C° 0 mm 3 m/s 763 mmHg 50%
    14:00 +24°C° 0 mm 3 m/s 763 mmHg 55%
    15:00 +22°C° 0 mm 3 m/s 763 mmHg 60%
    16:00 +22°C° 0 mm 3 m/s 763 mmHg 65%
    17:00 +20°C° 0 mm 3 m/s 763 mmHg 71%
    18:00 +19°C° 0 mm 3 m/s 763 mmHg 77%
    19:00 +17°C° 0 mm 2 m/s 763 mmHg 83%
    20:00 +17°C° 0 mm 2 m/s 763 mmHg 82%
    21:00 +17°C° 0 mm 2 m/s 763 mmHg 82%
    22:00 +17°C° 0 mm 2 m/s 763 mmHg 81%
    23:00 +16°C° 0 mm 2 m/s 763 mmHg 80%

    Mâine, 22 Octombrie, Duminică

    Timp Temperatura Precipitaţii Vânt Presiune Umiditate
    00:00 +16°C° 0 mm 2 m/s 763 mmHg 80%
    01:00 +16°C° 0 mm 1 m/s 763 mmHg 79%
    02:00 +16°C° 0 mm 1 m/s 763 mmHg 80%
    03:00 +16°C° 0 mm 1 m/s 762 mmHg 81%
    04:00 +16°C° 0 mm 1 m/s 762 mmHg 82%
    05:00 +16°C° 0 mm 1 m/s 762 mmHg 83%
    06:00 +16°C° 0 mm 1 m/s 762 mmHg 83%
    07:00 +16°C° 0 mm 1 m/s 762 mmHg 83%
    08:00 +19°C° 0 mm 1 m/s 762 mmHg 78%
    09:00 +21°C° 0 mm 1 m/s 762 mmHg 73%
    10:00 +22°C° 0 mm 1 m/s 761 mmHg 68%
    11:00 +23°C° 0 mm 2 m/s 761 mmHg 69%
    12:00 +23°C° 0 mm 2 m/s 760 mmHg 70%
    13:00 +23°C° 0 mm 2 m/s 760 mmHg 71%
    14:00 +21°C° 0 mm 2 m/s 759 mmHg 74%
    15:00 +21°C° 0 mm 2 m/s 759 mmHg 77%
    16:00 +21°C° 0 mm 2 m/s 758 mmHg 79%
    17:00 +20°C° 0,1 mm 3 m/s 758 mmHg 83%
    18:00 +19°C° 0,1 mm 4 m/s 758 mmHg 87%
    19:00 +18°C° 0,1 mm 4 m/s 758 mmHg 91%
    20:00 +17°C° 0,9 mm 5 m/s 757 mmHg 92%
    21:00 +17°C° 0,9 mm 5 m/s 757 mmHg 92%
    22:00 +17°C° 0,9 mm 6 m/s 756 mmHg 93%
    23:00 +17°C° 1,8 mm 6 m/s 756 mmHg 92%

    Poimâine, 23 Octombrie, Luni

    Timp Temperatura Precipitaţii Vânt Presiune Umiditate
    00:00 +17°C° 1,8 mm 7 m/s 755 mmHg 92%
    01:00 +17°C° 1,8 mm 7 m/s 755 mmHg 91%
    02:00 +17°C° 1,4 mm 6 m/s 754 mmHg 91%
    03:00 +17°C° 1,4 mm 5 m/s 754 mmHg 90%
    04:00 +16°C° 1,4 mm 5 m/s 753 mmHg 90%
    05:00 +17°C° 1 mm 4 m/s 753 mmHg 89%
    06:00 +17°C° 1 mm 4 m/s 753 mmHg 88%
    07:00 +17°C° 1 mm 4 m/s 753 mmHg 87%
    08:00 +17°C° 1,5 mm 4 m/s 753 mmHg 86%
    09:00 +17°C° 1,5 mm 4 m/s 753 mmHg 84%
    10:00 +17°C° 1,5 mm 4 m/s 753 mmHg 83%
    11:00 +15°C° 1,6 mm 4 m/s 753 mmHg 82%
    12:00 +15°C° 1,6 mm 4 m/s 753 mmHg 81%
    13:00 +15°C° 1,6 mm 4 m/s 753 mmHg 81%
    14:00 +14°C° 1 mm 4 m/s 753 mmHg 80%
    15:00 +14°C° 1 mm 5 m/s 754 mmHg 78%
    16:00 +14°C° 1 mm 5 m/s 754 mmHg 77%
    17:00 +13°C° 0,1 mm 5 m/s 754 mmHg 76%
    18:00 +13°C° 0,1 mm 5 m/s 754 mmHg 75%
    19:00 +12°C° 0,1 mm 5 m/s 754 mmHg 74%
    20:00 +12°C° 0 mm 5 m/s 754 mmHg 75%
    21:00 +12°C° 0 mm 5 m/s 754 mmHg 75%
    22:00 +10°C° 0 mm 5 m/s 754 mmHg 76%
    23:00 +10°C° 0,1 mm 5 m/s 754 mmHg 76%

    24 Octombrie, Marţi

    Timp Temperatura Precipitaţii Vânt Presiune Umiditate
    00:00 +10°C° 0,1 mm 5 m/s 754 mmHg 77%
    01:00 +10°C° 0,1 mm 5 m/s 754 mmHg 77%
    02:00 +10°C° 0 mm 5 m/s 754 mmHg 77%
    03:00 +10°C° 0 mm 5 m/s 754 mmHg 77%
    04:00 +10°C° 0 mm 5 m/s 754 mmHg 77%
    05:00 +10°C° 0 mm 6 m/s 754 mmHg 76%
    06:00 +11°C° 0 mm 6 m/s 754 mmHg 75%
    07:00 +11°C° 0 mm 6 m/s 754 mmHg 74%
    08:00 +13°C° 0,1 mm 6 m/s 754 mmHg 71%
    09:00 +14°C° 0,1 mm 6 m/s 754 mmHg 68%
    10:00 +15°C° 0,1 mm 6 m/s 755 mmHg 65%
    11:00 +15°C° 0,2 mm 6 m/s 755 mmHg 64%
    12:00 +15°C° 0,2 mm 7 m/s 755 mmHg 62%
    13:00 +15°C° 0,2 mm 7 m/s 755 mmHg 61%
    14:00 +15°C° 0,1 mm 7 m/s 755 mmHg 62%
    15:00 +15°C° 0,1 mm 8 m/s 755 mmHg 63%
    16:00 +13°C° 0,1 mm 8 m/s 755 mmHg 64%
    17:00 +13°C° 0 mm 8 m/s 755 mmHg 65%
    18:00 +13°C° 0 mm 8 m/s 755 mmHg 66%
    19:00 +13°C° 0 mm 8 m/s 755 mmHg 66%
    20:00 +13°C° 0,1 mm 8 m/s 756 mmHg 67%
    21:00 +13°C° 0,1 mm 8 m/s 756 mmHg 67%
    22:00 +13°C° 0,1 mm 8 m/s 756 mmHg 67%
    23:00 +13°C° 0 mm 8 m/s 757 mmHg 68%

    25 Octombrie, Miercuri

    Timp Temperatura Precipitaţii Vânt Presiune Umiditate
    00:00 +15°C° 0 mm 8 m/s 757 mmHg 69%
    01:00 +15°C° 0 mm 8 m/s 757 mmHg 69%
    02:00 +13°C° 0 mm 8 m/s 757 mmHg 70%
    03:00 +13°C° 0 mm 8 m/s 758 mmHg 70%
    04:00 +13°C° 0 mm 8 m/s 758 mmHg 70%
    05:00 +13°C° 0 mm 8 m/s 759 mmHg 70%
    06:00 +13°C° 0 mm 8 m/s 759 mmHg 70%
    07:00 +13°C° 0 mm 9 m/s 760 mmHg 70%
    08:00 +15°C° 0 mm 9 m/s 760 mmHg 66%
    09:00 +16°C° 0 mm 9 m/s 760 mmHg 62%
    10:00 +17°C° 0 mm 9 m/s 761 mmHg 58%
    11:00 +17°C° 0 mm 9 m/s 761 mmHg 58%
    12:00 +17°C° 0 mm 9 m/s 761 mmHg 57%
    13:00 +17°C° 0 mm 9 m/s 761 mmHg 56%
    14:00 +16°C° 0 mm 9 m/s 761 mmHg 57%
    15:00 +15°C° 0 mm 9 m/s 762 mmHg 58%
    16:00 +15°C° 0 mm 9 m/s 762 mmHg 59%
    17:00 +13°C° 0 mm 9 m/s 762 mmHg 60%
    18:00 +12°C° 0 mm 9 m/s 763 mmHg 62%
    19:00 +10°C° 0 mm 8 m/s 763 mmHg 63%
    20:00 +10°C° 0 mm 8 m/s 764 mmHg 63%
    21:00 +10°C° 0 mm 8 m/s 764 mmHg 64%
    22:00 +9°C° 0 mm 7 m/s 764 mmHg 64%
    23:00 +9°C° 0 mm 8 m/s 764 mmHg 64%

    26 Octombrie, Joi

    Timp Temperatura Precipitaţii Vânt Presiune Umiditate
    00:00 +9°C° 0 mm 8 m/s 764 mmHg 63%
    01:00 +9°C° 0 mm 8 m/s 764 mmHg 62%
    02:00 +9°C° 0 mm 8 m/s 764 mmHg 62%
    03:00 +9°C° 0 mm 7 m/s 764 mmHg 62%
    04:00 +9°C° 0 mm 7 m/s 764 mmHg 62%
    05:00 +9°C° 0 mm 7 m/s 765 mmHg 61%
    06:00 +9°C° 0 mm 7 m/s 765 mmHg 61%
    07:00 +9°C° 0 mm 7 m/s 765 mmHg 61%
    08:00 +11°C° 0 mm 6 m/s 766 mmHg 57%
    09:00 +13°C° 0 mm 6 m/s 766 mmHg 53%
    10:00 +14°C° 0 mm 5 m/s 766 mmHg 49%
    11:00 +15°C° 0 mm 5 m/s 766 mmHg 49%
    12:00 +15°C° 0 mm 5 m/s 766 mmHg 48%
    13:00 +16°C° 0 mm 5 m/s 766 mmHg 47%
    14:00 +15°C° 0 mm 5 m/s 767 mmHg 50%
    15:00 +15°C° 0 mm 4 m/s 767 mmHg 53%
    16:00 +14°C° 0 mm 4 m/s 767 mmHg 56%
    17:00 +13°C° 0 mm 5 m/s 768 mmHg 59%
    18:00 +10°C° 0 mm 5 m/s 768 mmHg 63%
    19:00 +9°C° 0 mm 5 m/s 769 mmHg 67%
    20:00 +9°C° 0 mm 5 m/s 769 mmHg 67%
    21:00 +8°C° 0 mm 5 m/s 770 mmHg 68%
    22:00 +8°C° 0 mm 5 m/s 770 mmHg 69%
    23:00 +8°C° 0 mm 5 m/s 770 mmHg 70%
    Arată mai mult